Flag for Switzerland Weather past 2 weeks in Einsiedeln, Schwyz, Switzerland

Now
78 °F

Warm.


Feels Like: 80 °F
Forecast: 65 / 87 °F
Wind: 2 mph from South

Location: Altdorf

Current Time: Jul 4, 2015 at 11:23:05 PM

Latest Report: Jul 4, 2015 at 10:00 PM


Visibility: N/A

Pressure: 30.09 "Hg (27.19 "Hg at 887m altitude)

Humidity: 60%

Dew point: 63 °F

Location of EinsiedelnLocation

Historic Weather in Einsiedeln — Graph

°F

Einsiedeln temperature yesterday

Maximum temperature yesterday: 89 °F (at 6:00 PM)
Minimum temperature yesterday: 68 °F (at 4:00 AM)
Average temperature yesterday: 79 °F

Past Weeks' High & Low Weather Summary

 TemperatureHumidityPressure
High90 °F (Jul 4, 5:00 PM)95% (Jun 22, 6:00 AM)30.24 "Hg (Jun 22, 6:00 AM)
Low50 °F (Jun 24, 8:00 AM)38% (Jul 3, 8:00 PM)29.73 "Hg (Jun 22, 11:00 PM)
Average67 °F70%30.09 "Hg
* Reported Jun 19 10:00 PM — Jul 4 10:00 PM, Einsiedeln, Weather by CustomWeather, © 2015

Note: Actual official high and low records may vary slightly from our data, if they occured in-between our weather recording intervals... More about our weather records

Advertising

Einsiedeln weather history for previous 24 hours

 ConditionsComfort  
Time TempWeatherWind HumidityBarometerVisibility
10:00 PM
Sat, Jul 4
78 °FWarm.2 mph60%30.09 "HgN/A
9:00 PM82 °FWarm.5 mph52%30.07 "HgN/A
8:00 PM82 °FPartly sunny.1 mph61%30.06 "Hg19 mi
7:00 PM88 °FWarm.1 mph48%30.04 "HgN/A
6:00 PM90 °FHot.2 mph45%30.04 "HgN/A
5:00 PM90 °FPartly sunny.7 mph40%30.05 "Hg19 mi
4:00 PM90 °FHot.8 mph39%30.06 "HgN/A
3:00 PM89 °FHot.7 mph44%30.07 "HgN/A
2:00 PM87 °FPartly sunny.5 mph50%30.10 "Hg19 mi
1:00 PM84 °FWarm.5 mph50%30.12 "HgN/A
12:00 PM82 °FWarm.3 mph57%30.14 "HgN/A
11:00 AM80 °FWarm.6 mph56%30.15 "HgN/A
10:00 AM81 °FWarm.No wind55%30.16 "HgN/A
9:00 AM77 °FMild.No wind57%30.17 "HgN/A
8:00 AM72 °FSunny.2 mph62%30.18 "Hg19 mi
7:00 AM68 °FMild.2 mph72%30.18 "HgN/A
6:00 AM73 °FMild.No wind55%30.16 "HgN/A
5:00 AM78 °FPassing clouds.5 mph46%30.14 "Hg19 mi
4:00 AM81 °FWarm.14 mph41%30.13 "HgN/A
3:00 AM80 °FWarm.10 mph44%30.14 "HgN/A
2:00 AM84 °FPassing clouds.13 mph38%30.14 "Hg19 mi
1:00 AM85 °FPleasantly warm.20 mph38%30.14 "HgN/A
12:00 AM85 °FWarm.14 mph40%30.14 "HgN/A
11:00 PM
Fri, Jul 3
80 °FPassing clouds.1 mph54%30.15 "Hg16 mi
Weather by CustomWeather, © 2015

See weather overviewHow to use our weather pages